Regional Weather Roundup
Issued by NWS Upton, NY

Current Version | Previous Version | Graphics & Text | Print | Product List | Glossary Off
Versions: 1 2 3 4 5 6 7 8 9 10 11 12 13 14 15 16 17 18 19 20 21 22 23 24 25 26 27

000
ASUS41 KOKX 171308
RWROKX

Regional Weather Roundup
National Weather Service New York NY
800 AM EST WED JAN 17 2018

Note: "FAIR" indicates few or no clouds below 12,000 feet with no
significant weather and/or obstructions to visibility.

NYZ071-072-176-178-NJZ106-104-171400-
New York City Metro Area

CITY           SKY/WX    TMP DP  RH WIND       PRES   REMARKS
Central Park   CLOUDY    33  32  96 CALM      30.28R FOG
Bronx Bot Gard   N/A     32  32 100 N3        30.26F
Bronx Lehman C   N/A     32  32 100 NW6         N/A  WCI  26
LaGuardia Arpt LGT SNOW  34  32  92 NW12      30.25S FOG     WCI  25
Queens College   N/A     34  34 100 NW8         N/A  WCI  27
Kennedy Intl   LGT RAIN  36  35  96 NW12      30.26R FOG     WCI  28
Breezy Point     N/A     34 N/A N/A NW10        N/A  WCI  26
Brooklyn Coll    N/A     36  34  93 NW8         N/A  WCI  29
Staten Island    N/A     32  32 100 NW6         N/A  WCI  26
Newark/Liberty LGT SNOW  34  32  92 NW7       30.27R VSB 1   WCI  28
Teterboro      LGT SNOW  33  32  96 N6        30.26S VSB 3/4 WCI  28
$$

NYZ177-179-078>081-171400-
Long Island New York

CITY           SKY/WX    TMP DP  RH WIND       PRES   REMARKS
Jones Beach      N/A     37 N/A N/A E9          N/A  WCI  31
Wantagh          N/A     37  37 100 NE3         N/A
Matinecock Pt    N/A     34 N/A N/A NE7         N/A  WCI  28
Farmingdale    MIX PCPN  37  36  96 NE3       30.23S FOG
MacArthur/ISP  CLOUDY    39  37  92 E5        30.22F
Shirley        LGT RAIN  37  37 100 VRB3      30.24F
Mt Sinai Harb    N/A    N/A N/A N/A E1          N/A
Westhampton    LGT RAIN  36  35  96 NE6       30.25F WCI  31
East Hampton   LGT RAIN  35  34  96 E6        30.25S WCI  30
Southold         N/A     36  34  93 E9          N/A  WCI  29
Montauk          N/A     38  36  92 NE8       30.26F WCI  32
$$

NYZ052-065-067-171400-
Hudson Valley

CITY           SKY/WX    TMP DP  RH WIND       PRES   REMARKS
White Plains   LGT SNOW  33  32  96 NW7       30.23R VSB 1   WCI  27
Larchmont Harb   N/A     34 N/A N/A NW7         N/A  WCI  28
Croton On Huds   N/A    N/A N/A N/A W5          N/A
Somers           N/A     32  32 100 NW5         N/A  WCI  27
Brewster         N/A     32  32 100 N5          N/A  WCI  27
Newburgh       SNOW      28  28 100 CALM      30.27S VSB 1/2
Montgomery     SNOW      29  28  96 CALM      30.26S VSB 1/2
Otisville        N/A     28  28 100 CALM        N/A
Warwick          N/A     28  28 100 CALM        N/A
Suffern          N/A     32  32 100 NW1         N/A
Poughkeepsie   SNOW      28  26  92 NW3       30.28S VSB 1/2
Albany         LGT SNOW  26  22  84 NW7       30.31S VSB 3/4 WCI  18
$$

NJZ001-105-106-008-010-013-015-019>022-104-171400-
New Jersey

CITY           SKY/WX    TMP DP  RH WIND       PRES   REMARKS
Newark/Liberty LGT SNOW  34  32  92 NW7       30.27R VSB 1   WCI  28
Teterboro      LGT SNOW  33  32  96 N6        30.26S VSB 3/4 WCI  28
Caldwell       SNOW      32  32 100 CALM      30.28R VSB 1/2
Somerville     LGT SNOW  32  32 100 NW7       30.27S VSB 1   WCI  26
Linden         LGT SNOW  33  31  93 CALM      30.28R
Perth Amboy      N/A     32 N/A N/A NW8         N/A  WCI  25
Sussex         SNOW      29  29 100 CALM      30.27S VSB 1/2
Andover          N/A     28  28 100 CALM      30.27S
Trenton        SNOW      33  32  96 NW5       30.27S VSB 1/2 WCI  29
Millville      LGT SNOW  33  33 100 NW10G18   30.29S VSB 1   WCI  25
Atlantic City  CLOUDY    35  34  96 NW14      30.27R WCI  26
Wrightstown    LGT SNOW  33  31  96 NW7       30.25R FOG     WCI  26
Toms River     LGT RAIN  34  33  96 NW10      30.27R FOG     WCI  26
Belmar         LGT RAIN  34  33  96 NW10      30.26R FOG     WCI  26
$$

PAZ047>061-062-071-171400-
Eastern Pennsylvania

CITY           SKY/WX    TMP DP  RH WIND       PRES   REMARKS
Philadelphia   LGT SNOW  32  28  85 NW12      30.32R VSB 1   WCI  23
Allentown      LGT SNOW  28  23  81 NW12      30.30S VSB 1   WCI  18
Scranton       LGT SNOW  21  20  96 SW7       30.29S FOG     WCI  12
$$

CTZ002-004>006-009-010-012-RIZ004-006-007-MAZ004-011-015-171400-
Southern New England

 In CT

CITY           SKY/WX    TMP DP  RH WIND       PRES   REMARKS
Bradley Intl   LGT SNOW  30  29  96 N7        30.26F FOG     WCI  23
Hartford       CLOUDY    31  30  96 N3        30.27F FOG
Danbury        LGT SNOW  33  31  92 CALM      30.25S FOG
Wtrbury/Oxford LGT SNOW  31  30  96 E6        30.22F FOG     WCI  25
Norwalk Harbor   N/A     32 N/A N/A NE15        N/A  WCI  22
Bridgeport     LGT RAIN  35  33  92 NE7       30.25F FOG     WCI  29
Meriden        CLOUDY    31  29  92 N5        30.25F FOG     WCI  26
New Haven      CLOUDY    34  32  92 N5        30.24F FOG     WCI  30
Chester        LGT SNOW  34  32  93 E3        30.23F
Groton         LGT RAIN  34  33  96 NE5       30.26F WCI  30
Willimantic    LGT SNOW  33  32  96 CALM      30.26F VSB 3/4

 In RI

CITY           SKY/WX    TMP DP  RH WIND       PRES   REMARKS
Providence     LGT SNOW  33  33 100 NE6       30.29F VSB 1   WCI  28
Block Island   LGT RAIN  35  35 100 NE14      30.27F WCI  26
Westerly       LGT RAIN  34  34 100 NE6       30.27F FOG     WCI  29

In MA

CITY           SKY/WX    TMP DP  RH WIND       PRES   REMARKS
Boston         LGT SNOW  32  32 100 NE5       30.30F VSB 1   WCI  27
Worcester      LGT SNOW  28  26  92 NE5       30.23F VSB 3/4 WCI  23
Westfield      CLOUDY    29  28  96 N8        30.26F FOG     WCI  21
Provincetown   LGT RAIN  34  32  92 E7        30.31S FOG     WCI  28
Nantucket      CLOUDY    38  38 100 NE9       30.25S WCI  31
$$

ANZ330-335-338-340-345-350-353-355-171400-
Coastal Marine Observations


STATION/POSITION TIME  SKY/WX   TEMP    WIND        PRES    VSBY  WAVE
                                AIR SEA DIR/SP/G                  HT/PER
                 (UTC)          (F)     (DEG/KT/KT) (MB)    (MI)  (FT/S)
NY Harb Entrance 1250            38 42  310/ 14/ 16 1023.4          4/11
20 S Fire Island 1150            43 41   80/  4/  6 1023.4          5/10
15 E Barnegat Li 1230               43                N/A           5/10
Hudson Canyon    1150            47 51   60/ 10/ 12 1022.3          8/ 7
Kings Point      1230            34 32   40/  8/ 13 1025.1
Execution Rocks  NOT AVBL
Western LI Sound NOT AVBL
Central LI Sound 1230            35      70/ 10/ 12   N/A           1
Robbins Reef     1242            33     330/  9/ 12 1025.2
$$


>>>>>>>>>>>>>>>>>>>>>>>>>>>> KEY <<<<<<<<<<<<<<<<<<<<<<<<<<<
>                                                          <
>     SKY/WX - Sky Condition/Present Weather               <
>     TMP    - Temperature in Fahrenheit                   <
>     DP     - Dew Point in Fahrenheit                     <
>     RH     - Relative Humidity in Percent                <
>     WIND   - Direction (from) and Speed in MPH           <
>     PRES   - Mean Sea Level Pressure (inches of Hg)      <
>     WCI    - Wind Chill Index                            <
>     VSB    - Visibility in Miles                         <
>     HX     - Heat Index                                  <
>     TC     - Temperature in Celsius                      <
>     VRB    - Varibale Wind Direction                     <
>                                                          <
>>>>>>>>>>>>>>>>>>>>>>>>>>>> KEY <<<<<<<<<<<<<<<<<<<<<<<<<<<




USA.gov is the U.S. government's official web portal to all federal, state and local government web resources and services.